FW2483 Weather Reports


Display with metric or nautical units.
time (UTC)temp
F
wind
direction
speed
MPH
gust
MPH
rain 1hr
in
rain 24hr
in
rain mn
in
humidity
%
barometer
mb
20260505153132 78 334 8.0 13.0 0.00 0.00 0.00 41 1010.0
20260505153052 78 201 6.0 15.0 0.00 0.00 0.00 40 1010.3
20260505152628 78 242 5.0 13.0 0.00 0.00 0.00 42 1010.1
20260505152349 78 199 4.0 14.0 0.00 0.00 0.00 42 1010.1
20260505151622 77 217 6.0 14.0 0.00 0.00 0.00 42 1010.1
20260505151540 77 225 5.0 14.0 0.00 0.00 0.00 41 1010.4
20260505151117 77 212 4.0 8.0 0.00 0.00 0.00 44 1010.1
20260505150842 77 210 2.0 7.0 0.00 0.00 0.00 47 1010.1
20260505150113 76 261 1.0 10.0 0.00 0.00 0.00 47 1010.2
20260505140530 71 209 3.0 7.0 0.00 0.00 0.00 50 1010.6
20260505124920 66 211 3.0 7.0 0.00 0.00 0.00 59 1011.3
20260505124605 65 205 3.0 7.0 0.00 0.00 0.00 59 1011.5
20260505124407 66 204 4.0 7.0 0.00 0.00 0.00 60 1011.1
20260505123904 65 198 2.0 6.0 0.00 0.00 0.00 60 1011.1
20260505123359 65 315 3.0 6.0 0.00 0.00 0.00 61 1011.1
20260505123110 64 0 1.0 6.0 0.00 0.00 0.00 62 1011.3
20260505122854 65 243 1.0 5.0 0.00 0.00 0.00 63 1011.1
20260505122343 64 240 2.0 5.0 0.00 0.00 0.00 63 1011.0
20260505121839 64 207 1.0 3.0 0.00 0.00 0.00 63 1011.1
20260505121541 63 0 1.0 5.0 0.00 0.00 0.00 64 1011.3
20260505121333 63 207 1.0 5.0 0.00 0.00 0.00 64 1011.0
20260505121049 63 207 2.0 5.0 0.00 0.00 0.00 66 1010.8
20260505120323 62 206 1.0 4.0 0.00 0.00 0.00 66 1010.8
20260505120052 62 206 1.0 4.0 0.00 0.00 0.00 67 1011.0
20260505115812 62 206 2.0 4.0 0.00 0.00 0.00 68 1010.8
20260505115309 61 206 1.0 3.0 0.00 0.00 0.00 72 1010.7
20260505114809 60 207 0.0 0.0 0.00 0.00 0.00 77 1010.7
20260505114549 59 0 0.0 0.0 0.00 0.00 0.00 76 1011.0
20260505114300 58 207 0.0 0.0 0.00 0.00 0.00 78 1010.7
20260505114007 57 207 0.0 0.0 0.00 0.00 0.00 80 1010.6
20260505113244 57 207 0.0 0.0 0.00 0.00 0.00 80 1010.5
20260505113044 56 0 0.0 0.0 0.00 0.00 0.00 80 1010.8
20260505112740 56 207 0.0 0.0 0.00 0.00 0.00 81 1010.7
20260505112236 56 207 0.0 0.0 0.00 0.00 0.00 81 1010.6
20260505111737 55 207 0.0 0.0 0.00 0.00 0.00 82 1010.5
20260505111540 55 0 0.0 0.0 0.00 0.00 0.00 82 1010.8
20260505111237 55 207 0.0 0.0 0.00 0.00 0.00 83 1010.6
20260505110731 54 207 0.0 0.0 0.00 0.00 0.00 83 1010.3
20260505110225 54 207 0.0 0.0 0.00 0.00 0.00 83 1010.4
20260505102140 53 207 0.0 0.0 0.00 0.00 0.00 81 1010.2
20260505101636 53 207 0.0 0.0 0.00 0.00 0.00 81 1010.2
20260505101545 52 0 0.0 0.0 0.00 0.00 0.00 81 1010.5
20260505101130 53 207 0.0 0.0 0.00 0.00 0.00 81 1010.1
20260505100635 53 207 0.0 0.0 0.00 0.00 0.00 80 1010.1
20260505100344 53 207 0.0 0.0 0.00 0.00 0.00 79 1009.9
20260505100041 53 0 0.0 0.0 0.00 0.00 0.00 79 1010.3
20260505095605 53 207 0.0 0.0 0.00 0.00 0.00 79 1010.1
20260505095100 54 207 0.0 0.0 0.00 0.00 0.00 80 1010.0
20260505094547 54 207 0.0 0.0 0.00 0.00 0.00 80 1010.1
20260505094538 53 0 0.0 0.0 0.00 0.00 0.00 79 1010.3
20260505094040 53 207 0.0 0.0 0.00 0.00 0.00 80 1010.1
20260505093535 54 207 0.0 0.0 0.00 0.00 0.00 78 1010.0
20260505093045 54 0 0.0 0.0 0.00 0.00 0.00 77 1010.3
20260505093030 55 207 0.0 0.0 0.00 0.00 0.00 77 1010.0
20260505092526 55 207 0.0 0.0 0.00 0.00 0.00 76 1009.9
20260505092020 57 207 0.0 0.0 0.00 0.00 0.00 72 1010.0
20260505091543 58 0 0.0 0.0 0.00 0.00 0.00 70 1010.3
20260505091514 58 207 0.0 0.0 0.00 0.00 0.00 70 1010.1
20260505090504 58 207 0.0 2.0 0.00 0.00 0.00 70 1009.9
20260505090052 59 0 0.0 2.0 0.00 0.00 0.00 68 1010.2
20260505090003 59 207 0.0 2.0 0.00 0.00 0.00 69 1009.9
20260505085457 59 207 0.0 2.0 0.00 0.00 0.00 69 1009.8
20260505084952 60 207 0.0 1.0 0.00 0.00 0.00 68 1009.8
20260505084541 60 0 0.0 3.0 0.00 0.00 0.00 66 1010.1
20260505084440 60 207 0.0 4.0 0.00 0.00 0.00 67 1009.7
20260505083936 60 207 0.0 4.0 0.00 0.00 0.00 67 1009.7
20260505083430 60 207 2.0 4.0 0.00 0.00 0.00 67 1009.7
20260505083043 60 0 0.0 0.0 0.00 0.00 0.00 67 1009.9
20260505082931 60 207 0.0 0.0 0.00 0.00 0.00 67 1009.7
20260505082428 60 207 0.0 0.0 0.00 0.00 0.00 67 1009.7
20260505082152 60 207 0.0 0.0 0.00 0.00 0.00 67 1009.7
20260505081546 59 0 0.0 0.0 0.00 0.00 0.00 66 1009.9
20260505081417 60 207 0.0 0.0 0.00 0.00 0.00 67 1009.7
20260505080912 60 207 0.0 0.0 0.00 0.00 0.00 67 1009.6
20260505080412 59 207 0.0 0.0 0.00 0.00 0.00 68 1009.7
20260505080124 59 207 0.0 0.0 0.00 0.00 0.00 69 1009.8
20260505080050 59 0 0.0 0.0 0.00 0.00 0.00 68 1010.1
20260505075403 60 207 0.0 1.0 0.00 0.00 0.00 68 1009.7
20260505074858 60 207 0.0 1.0 0.00 0.00 0.00 67 1009.7
20260505074537 60 0 0.0 2.0 0.00 0.00 0.00 65 1010.1
20260505074353 61 207 0.0 2.0 0.00 0.00 0.00 65 1009.7
20260505074108 61 207 0.0 2.0 0.00 0.00 0.00 64 1009.7
20260505073608 61 207 0.0 2.0 0.00 0.00 0.00 64 1009.8
20260505073106 62 207 0.0 2.0 0.00 0.00 0.00 63 1009.9
20260505073054 61 0 0.0 3.0 0.00 0.00 0.00 63 1010.1
20260505072341 62 207 0.0 6.0 0.00 0.00 0.00 61 1009.9
20260505071542 62 0 2.0 6.0 0.00 0.00 0.00 61 1010.2
20260505071329 62 206 3.0 6.0 0.00 0.00 0.00 61 1009.8
20260505070825 62 202 2.0 6.0 0.00 0.00 0.00 61 1009.9
20260505070319 62 219 0.0 6.0 0.00 0.00 0.00 61 1009.9
20260505070052 62 219 2.0 6.0 0.00 0.00 0.00 60 1010.1
20260505065304 62 213 1.0 4.0 0.00 0.00 0.00 61 1009.8
20260505064758 62 215 1.0 7.0 0.00 0.00 0.00 61 1009.9
20260505064537 62 0 1.0 7.0 0.00 0.00 0.00 60 1010.1
20260505064513 62 216 4.0 7.0 0.00 0.00 0.00 61 1009.7
20260505063745 62 249 2.0 6.0 0.00 0.00 0.00 61 1009.8
20260505063245 62 207 3.0 6.0 0.00 0.00 0.00 60 1009.9
20260505063046 62 212 3.0 8.0 0.00 0.00 0.00 60 1010.1
20260505063000 62 191 1.0 8.0 0.00 0.00 0.00 61 1009.8
20260505062233 62 204 2.0 8.0 0.00 0.00 0.00 61 1009.8
20260505061728 61 198 3.0 6.0 0.00 0.00 0.00 61 1009.9
20260505061542 61 194 2.0 6.0 0.00 0.00 0.00 60 1010.1
20260505061451 61 217 1.0 5.0 0.00 0.00 0.00 61 1009.9
20260505060722 61 211 2.0 5.0 0.00 0.00 0.00 61 1010.0
20260505060431 61 214 2.0 4.0 0.00 0.00 0.00 61 1009.9
20260505060045 60 214 1.0 5.0 0.00 0.00 0.00 60 1010.1
20260505055709 61 214 1.0 3.0 0.00 0.00 0.00 61 1009.9
20260505055428 60 214 1.0 3.0 0.00 0.00 0.00 61 1010.0
20260505054705 60 214 0.0 4.0 0.00 0.00 0.00 60 1009.8
20260505054544 60 0 0.0 4.0 0.00 0.00 0.00 59 1010.1
20260505054200 61 214 0.0 4.0 0.00 0.00 0.00 59 1009.8
20260505053651 61 221 1.0 4.0 0.00 0.00 0.00 59 1009.9
20260505053145 61 221 1.0 6.0 0.00 0.00 0.00 58 1009.8
20260505053042 61 224 0.0 6.0 0.00 0.00 0.00 58 1010.1
20260505052645 61 227 1.0 6.0 0.00 0.00 0.00 58 1009.7
20260505052139 61 193 1.0 5.0 0.00 0.00 0.00 57 1009.8
20260505051635 62 194 2.0 5.0 0.00 0.00 0.00 57 1009.8
20260505051547 61 194 1.0 5.0 0.00 0.00 0.00 57 1010.0
20260505051134 61 191 2.0 8.0 0.00 0.00 0.00 57 1009.7
20260505050623 62 222 1.0 8.0 0.00 0.00 0.00 56 1009.7
20260505050335 62 192 2.0 5.0 0.00 0.00 0.00 56 1009.7
20260505050123 61 192 1.0 6.0 0.00 0.00 0.00 56 1010.0
20260505041550 61 200 2.0 12.0 0.00 0.00 0.00 53 1010.2
20260505041531 62 200 4.0 9.0 0.00 0.00 0.00 54 1009.9
20260505041032 61 207 3.0 7.0 0.00 0.00 0.00 54 1009.9
20260505040532 61 196 0.0 2.0 0.00 0.00 0.00 54 1009.8
20260505040053 60 0 0.0 2.0 0.00 0.00 0.00 54 1010.0
20260505040026 60 196 0.0 2.0 0.00 0.00 0.00 54 1009.8
20260505035517 60 196 0.0 2.0 0.00 0.00 0.00 54 1009.7
20260505035011 61 196 0.0 3.0 0.00 0.00 0.00 54 1009.6
20260505034545 60 0 1.0 3.0 0.00 0.00 0.00 54 1009.9
20260505034505 61 196 1.0 3.0 0.00 0.00 0.00 54 1009.5
20260505034005 60 200 1.0 2.0 0.00 0.00 0.00 54 1009.6
20260505033459 60 200 1.0 2.0 0.00 0.00 0.00 55 1009.6
20260505033046 59 200 1.0 2.0 0.00 0.00 0.00 55 1009.8
20260505033000 60 200 1.0 2.0 0.00 0.00 0.00 55 1009.6
20260505032455 60 200 1.0 2.0 0.00 0.00 0.00 56 1009.6
20260505031948 60 200 0.0 2.0 0.00 0.00 0.00 55 1009.6
20260505031545 59 0 0.0 3.0 0.00 0.00 0.00 57 1009.9
20260505031439 59 200 1.0 3.0 0.00 0.00 0.00 57 1009.6
20260505030934 60 200 0.0 3.0 0.00 0.00 0.00 55 1009.6
20260505030429 60 201 0.0 1.0 0.00 0.00 0.00 54 1009.8
20260505030042 61 0 0.0 2.0 0.00 0.00 0.00 51 1010.1
20260505025926 62 201 0.0 1.0 0.00 0.00 0.00 51 1009.8
20260505025421 62 201 0.0 1.0 0.00 0.00 0.00 51 1009.7
20260505024917 62 201 0.0 2.0 0.00 0.00 0.00 52 1009.7
20260505024548 61 0 1.0 3.0 0.00 0.00 0.00 52 1010.0
20260505024412 61 204 1.0 3.0 0.00 0.00 0.00 53 1009.6
20260505023906 61 204 0.0 3.0 0.00 0.00 0.00 53 1009.6
20260505023404 61 204 0.0 2.0 0.00 0.00 0.00 52 1009.8
20260505023045 61 0 0.0 2.0 0.00 0.00 0.00 51 1010.2
20260505022900 62 204 0.0 2.0 0.00 0.00 0.00 51 1009.9
20260505022359 62 204 0.0 2.0 0.00 0.00 0.00 51 1009.9
20260505022110 62 204 0.0 0.0 0.00 0.00 0.00 51 1009.9
20260505021543 62 0 0.0 1.0 0.00 0.00 0.00 50 1010.3
20260505021345 63 204 0.0 1.0 0.00 0.00 0.00 50 1009.9
20260505020844 63 204 0.0 3.0 0.00 0.00 0.00 49 1009.9
20260505020341 63 204 1.0 3.0 0.00 0.00 0.00 49 1010.0
20260505020041 63 0 0.0 2.0 0.00 0.00 0.00 48 1010.3
20260505015838 63 204 0.0 2.0 0.00 0.00 0.00 49 1010.0
20260505015326 63 204 0.0 1.0 0.00 0.00 0.00 49 1009.9
20260505014822 63 204 0.0 2.0 0.00 0.00 0.00 50 1010.0
20260505014557 63 0 0.0 2.0 0.00 0.00 0.00 49 1010.2
20260505014318 63 204 0.0 2.0 0.00 0.00 0.00 50 1009.8
20260505013817 63 204 0.0 2.0 0.00 0.00 0.00 50 1009.8
20260505013305 63 204 0.0 2.0 0.00 0.00 0.00 50 1009.9
20260505013049 63 204 0.0 2.0 0.00 0.00 0.00 50 1010.0
20260505012757 63 204 1.0 2.0 0.00 0.00 0.00 51 1009.9
20260505012250 62 204 0.0 2.0 0.00 0.00 0.00 51 1009.9
20260505011743 62 204 0.0 0.0 0.00 0.00 0.00 53 1009.8
20260505011538 61 0 0.0 0.0 0.00 0.00 0.00 52 1010.0
20260505011239 62 204 0.0 0.0 0.00 0.00 0.00 52 1009.7
20260505010956 61 204 0.0 0.0 0.00 0.00 0.00 52 1009.6
20260505010230 61 204 0.0 0.0 0.00 0.00 0.00 52 1009.5
20260505010045 61 0 0.0 0.0 0.00 0.00 0.00 52 1009.9
20260505005724 62 204 0.0 0.0 0.00 0.00 0.00 52 1009.6
20260505005224 63 204 0.0 0.0 0.00 0.00 0.00 50 1009.5
20260505004716 64 204 0.0 0.0 0.00 0.00 0.00 48 1009.4
20260505004544 63 0 0.0 0.0 0.00 0.00 0.00 48 1009.6
20260505004210 64 204 0.0 0.0 0.00 0.00 0.00 48 1009.3
20260505003927 65 204 0.0 0.0 0.00 0.00 0.00 46 1009.4
20260505003205 65 204 0.0 0.0 0.00 0.00 0.00 47 1009.3
20260505003039 64 0 0.0 0.0 0.00 0.00 0.00 46 1009.5
20260505002706 64 204 0.0 0.0 0.00 0.00 0.00 47 1009.3
20260505002202 65 204 0.0 0.0 0.00 0.00 0.00 46 1009.4
20260505001916 66 204 0.0 2.0 0.00 0.00 0.00 44 1009.3
20260505001542 66 0 0.0 2.0 0.00 0.00 0.00 44 1009.4
20260505001402 67 204 0.0 3.0 0.00 0.00 0.00 43 1009.1
20260505000640 67 204 0.0 6.0 0.00 0.00 0.00 42 1009.1
20260505000358 68 208 1.0 6.0 0.00 0.00 0.00 42 1009.1
20260505000051 67 207 0.0 5.0 0.00 0.00 0.00 41 1009.4
20260504235630 68 207 2.0 7.0 0.00 0.00 0.00 41 1009.1
20260504235125 68 209 1.0 7.0 0.00 0.00 0.00 41 1009.1
20260504234620 69 184 2.0 7.0 0.00 0.00 0.00 40 1009.1
20260504234603 68 184 3.0 8.0 0.00 0.00 0.00 40 1009.4
20260504234115 69 207 2.0 6.0 0.00 0.00 0.00 41 1009.0
20260504233840 69 168 4.0 8.0 0.00 0.00 0.00 40 1009.0
20260504233104 69 179 3.0 8.0 0.00 0.00 0.00 39 1009.0
20260504233047 69 172 3.0 8.0 0.00 0.00 0.00 39 1009.1
20260504232600 69 211 4.0 7.0 0.00 0.00 0.00 39 1009.0
20260504232055 69 193 2.0 8.0 0.00 0.00 0.00 39 1008.9
20260504231551 70 213 4.0 8.0 0.00 0.00 0.00 38 1008.9
20260504231539 69 213 4.0 11.0 0.00 0.00 0.00 38 1009.2
20260504231048 70 202 4.0 9.0 0.00 0.00 0.00 39 1008.9
20260504230546 70 183 5.0 11.0 0.00 0.00 0.00 39 1008.8
20260504230042 70 165 4.0 12.0 0.00 0.00 0.00 37 1009.1
20260504230038 70 167 3.0 11.0 0.00 0.00 0.00 38 1008.8
20260504225534 70 167 2.0 9.0 0.00 0.00 0.00 39 1008.9
20260504225029 71 119 5.0 9.0 0.00 0.00 0.00 38 1008.8
20260504224550 70 198 3.0 11.0 0.00 0.00 0.00 38 1009.2
20260504224024 71 115 4.0 9.0 0.00 0.00 0.00 38 1008.9
20260504223515 71 192 4.0 8.0 0.00 0.00 0.00 37 1008.8
20260504223044 71 184 2.0 10.0 0.00 0.00 0.00 39 1009.0
20260504223012 71 205 2.0 8.0 0.00 0.00 0.00 39 1008.7
20260504222517 71 121 4.0 8.0 0.00 0.00 0.00 38 1008.7
20260504222009 72 143 5.0 9.0 0.00 0.00 0.00 37 1008.9
20260504221543 71 193 3.0 12.0 0.00 0.00 0.00 38 1009.2
20260504221508 72 190 4.0 9.0 0.00 0.00 0.00 37 1008.9
20260504221003 72 200 5.0 12.0 0.00 0.00 0.00 37 1009.0
20260504220454 72 181 5.0 12.0 0.00 0.00 0.00 39 1009.0
20260504220211 72 194 4.0 10.0 0.00 0.00 0.00 39 1009.0
20260504220041 72 194 3.0 10.0 0.00 0.00 0.00 39 1009.2
20260504215448 72 209 4.0 10.0 0.00 0.00 0.00 38 1009.0
20260504214945 72 123 4.0 9.0 0.00 0.00 0.00 39 1008.8
20260504214541 72 118 4.0 12.0 0.00 0.00 0.00 37 1009.2
20260504214440 72 192 3.0 13.0 0.00 0.00 0.00 38 1009.0
20260504213937 72 209 5.0 13.0 0.00 0.00 0.00 38 1008.9
20260504213436 73 125 2.0 11.0 0.00 0.00 0.00 39 1009.0
20260504213055 72 192 5.0 11.0 0.00 0.00 0.00 37 1009.2
20260504212933 72 190 5.0 11.0 0.00 0.00 0.00 37 1008.9
20260504212427 73 178 3.0 13.0 0.00 0.00 0.00 39 1009.0
20260504211922 72 213 6.0 13.0 0.00 0.00 0.00 38 1009.0
20260504211539 72 158 3.0 11.0 0.00 0.00 0.00 37 1009.3
20260504211416 72 140 3.0 10.0 0.00 0.00 0.00 39 1009.0
20260504210912 72 133 4.0 10.0 0.00 0.00 0.00 39 1009.0
20260504210630 73 232 5.0 10.0 0.00 0.00 0.00 38 1009.0
20260504210123 73 156 5.0 10.0 0.00 0.00 0.00 40 1009.0
20260504210043 73 179 5.0 10.0 0.00 0.00 0.00 39 1009.3
20260504204855 73 124 2.0 10.0 0.00 0.00 0.00 38 1008.9
20260504204542 72 194 3.0 13.0 0.00 0.00 0.00 37 1009.1
20260504204354 73 207 2.0 10.0 0.00 0.00 0.00 37 1008.9
20260504203850 73 218 5.0 10.0 0.00 0.00 0.00 35 1009.1
20260504203345 72 197 6.0 11.0 0.00 0.00 0.00 36 1009.0
20260504203042 73 184 4.0 11.0 0.00 0.00 0.00 36 1009.3
20260504202840 73 202 6.0 11.0 0.00 0.00 0.00 36 1009.0
20260504202335 72 197 3.0 13.0 0.00 0.00 0.00 39 1009.1
20260504201540 72 238 5.0 14.0 0.00 0.00 0.00 34 1009.6
20260504201325 73 205 6.0 13.0 0.00 0.00 0.00 36 1009.3
20260504200826 73 271 6.0 13.0 0.00 0.00 0.00 37 1009.4
20260504200317 73 224 5.0 9.0 0.00 0.00 0.00 35 1009.3
20260504200049 73 200 4.0 12.0 0.00 0.00 0.00 35 1009.6
20260504195814 73 204 4.0 10.0 0.00 0.00 0.00 38 1009.5
20260504195311 74 225 6.0 10.0 0.00 0.00 0.00 35 1009.6
20260504194806 73 225 4.0 19.0 0.00 0.00 0.00 36 1009.4
20260504194557 73 196 4.0 19.0 0.00 0.00 0.00 35 1009.6
20260504193756 74 252 7.0 10.0 0.00 0.00 0.00 35 1009.6
20260504193251 74 229 6.0 9.0 0.00 0.00 0.00 34 1009.6
20260504193051 74 223 3.0 10.0 0.00 0.00 0.00 37 1009.8
20260504193005 74 208 2.0 10.0 0.00 0.00 0.00 38 1009.7
20260504192453 73 215 3.0 13.0 0.00 0.00 0.00 37 1009.6
20260504191730 73 215 5.0 13.0 0.00 0.00 0.00 36 1009.7
20260504191539 73 198 6.0 11.0 0.00 0.00 0.00 35 1010.0
20260504191229 73 197 6.0 10.0 0.00 0.00 0.00 38 1009.7
20260504190725 73 203 3.0 10.0 0.00 0.00 0.00 40 1009.8
20260504190447 73 230 4.0 10.0 0.00 0.00 0.00 36 1009.8
20260504190041 72 260 4.0 9.0 0.00 0.00 0.00 36 1010.1
20260504185715 73 260 4.0 13.0 0.00 0.00 0.00 35 1009.9
20260504184706 72 222 6.0 13.0 0.00 0.00 0.00 36 1010.1
20260504184541 71 207 5.0 14.0 0.00 0.00 0.00 35 1010.6
20260504184201 72 242 7.0 13.0 0.00 0.00 0.00 36 1010.2
20260504183658 72 169 6.0 13.0 0.00 0.00 0.00 38 1010.2
20260504183153 72 188 4.0 14.0 0.00 0.00 0.00 39 1010.2
20260504183038 71 145 4.0 17.0 0.00 0.00 0.00 38 1010.4
20260504182913 71 208 5.0 17.0 0.00 0.00 0.00 37 1010.3
20260504182322 71 340 6.0 13.0 0.00 0.00 0.00 37 1010.5
20260504182317 70 306 4.0 13.0 0.00 0.00 0.00 37 1010.6
20260504182309 72 229 7.0 17.0 0.00 0.00 0.00 37 1010.4
20260504182250 71 180 5.0 17.0 0.00 0.00 0.00 37 1010.3
20260504182229 71 201 7.0 17.0 0.00 0.00 0.00 36 1010.5
20260504175629 71 179 7.0 13.0 0.00 0.00 0.00 38 1010.7
20260504175121 71 206 6.0 13.0 0.00 0.00 0.00 38 1010.7
20260504174615 71 116 4.0 9.0 0.00 0.00 0.00 38 1010.7
20260504174544 71 146 3.0 12.0 0.00 0.00 0.00 39 1011.0
20260504174110 70 188 2.0 14.0 0.00 0.00 0.00 39 1010.8
20260504173101 70 212 7.0 11.0 0.00 0.00 0.00 37 1010.9
20260504173047 69 215 7.0 15.0 0.00 0.00 0.00 36 1011.3
20260504172603 69 244 5.0 11.0 0.00 0.00 0.00 39 1011.1
20260504172100 70 198 5.0 12.0 0.00 0.00 0.00 40 1011.1
20260504171553 70 202 5.0 12.0 0.00 0.00 0.00 38 1011.4
20260504171548 69 180 5.0 13.0 0.00 0.00 0.00 37 1011.6
20260504171047 70 162 4.0 9.0 0.00 0.00 0.00 40 1011.2
20260504170544 69 250 4.0 12.0 0.00 0.00 0.00 37 1011.5
20260504160208 68 184 3.0 11.0 0.00 0.00 0.00 42 1012.3